Tracking 29892 objects as of 21-Nov-2024
HD Live streaming from Space Station
objects crossing your sky now

COSMOS 1275 DEB

Track COSMOS 1275 DEB now!
10-day predictions


NORAD ID: 19853
Int'l Code: 1981-053MN
Perigee: 925.1 km
Apogee: 1,107.2 km
Inclination: 83.0 °
Period: 105.3 minutes
Semi major axis: 7387 km
RCS: 0.0046 m2 (small)
Launch date: June 4, 1981
Source: Commonwealth of Independent States (former USSR) (CIS)
Launch site: PLESETSK MISSILE AND SPACE COMPLEX (PKMTR)

Note: This is SATELLITE DEBRIS
Your satellite tracking list
Your tracking list is empty




NASA's NSSDC Master Catalog

Two Line Element Set (TLE):
1 19853U 81053MH  24324.99688341  .00001580  00000-0  17663-2 0  9995
2 19853  82.9892 321.6874 0123288  18.8483  10.2186 13.67370566615962
Source of the keplerian elements: AFSPC